TimeMST,TemperatureF,Dew PointF,Humidity,Sea Level PressureIn,VisibilityMPH,Wind Direction,Wind SpeedMPH,Gust SpeedMPH,PrecipitationIn,Events,Conditions,WindDirDegrees,DateUTC
12:54 AM,33.1,23.0,66,30.04,10.0,NW,17.3,23.0,0.00,,Overcast,310,2013-12-30 07:54:00
1:54 AM,32.0,21.0,64,30.07,10.0,NW,16.1,26.5,N/A,,Mostly Cloudy,310,2013-12-30 08:54:00
2:54 AM,32.0,21.9,66,30.10,10.0,WNW,17.3,27.6,N/A,,Overcast,290,2013-12-30 09:54:00
3:54 AM,30.9,23.0,72,30.13,10.0,Variable,3.5,-,N/A,,Overcast,0,2013-12-30 10:54:00
4:36 AM,30.9,21.9,69,30.06,10.0,Calm,Calm,-,N/A,,Overcast,0,2013-12-30 11:36:00
4:54 AM,30.0,23.0,75,30.15,10.0,Variable,3.5,-,N/A,,Overcast,0,2013-12-30 11:54:00
5:54 AM,30.0,23.0,75,30.17,10.0,SSW,3.5,-,N/A,,Overcast,210,2013-12-30 12:54:00
6:54 AM,28.9,24.1,82,30.18,10.0,WNW,6.9,-,N/A,,Overcast,290,2013-12-30 13:54:00
7:54 AM,28.0,24.1,85,30.19,10.0,NW,6.9,-,N/A,,Overcast,310,2013-12-30 14:54:00
8:54 AM,27.0,24.1,89,30.20,10.0,WSW,6.9,-,N/A,,Overcast,240,2013-12-30 15:54:00
9:54 AM,28.0,24.1,85,30.18,10.0,WSW,9.2,-,N/A,,Partly Cloudy,240,2013-12-30 16:54:00
10:54 AM,30.0,24.1,79,30.16,10.0,West,3.5,-,N/A,,Clear,280,2013-12-30 17:54:00
11:54 AM,32.0,24.1,73,30.11,10.0,NE,3.5,-,N/A,,Clear,50,2013-12-30 18:54:00
12:54 PM,35.1,25.0,67,30.08,10.0,NNE,3.5,-,N/A,,Clear,30,2013-12-30 19:54:00
1:54 PM,37.0,25.0,62,30.05,10.0,North,4.6,-,N/A,,Clear,10,2013-12-30 20:54:00
2:54 PM,37.9,25.0,60,30.03,10.0,North,4.6,-,N/A,,Clear,10,2013-12-30 21:54:00
3:54 PM,35.1,24.1,64,30.03,10.0,Calm,Calm,-,N/A,,Clear,0,2013-12-30 22:54:00
4:54 PM,34.0,25.0,70,30.01,10.0,SW,9.2,-,N/A,,Overcast,220,2013-12-30 23:54:00
5:54 PM,37.9,25.0,60,29.98,10.0,SW,16.1,-,N/A,,Overcast,230,2013-12-31 00:54:00
6:54 PM,37.0,26.1,65,29.96,10.0,WSW,17.3,-,N/A,,Mostly Cloudy,240,2013-12-31 01:54:00
7:54 PM,36.0,28.0,73,29.94,10.0,SW,16.1,-,N/A,,Scattered Clouds,230,2013-12-31 02:54:00
8:54 PM,37.9,27.0,65,29.91,10.0,SW,17.3,-,N/A,,Overcast,230,2013-12-31 03:54:00
9:54 PM,39.0,28.0,65,29.88,10.0,SW,20.7,-,N/A,,Overcast,230,2013-12-31 04:54:00
10:54 PM,39.0,28.9,67,29.85,10.0,SW,18.4,-,N/A,,Overcast,230,2013-12-31 05:54:00
11:54 PM,39.9,28.9,65,29.84,10.0,WSW,23.0,31.1,N/A,,Overcast,240,2013-12-31 06:54:00